Location: Saluda
(35.2377°N, 82.3468°W)
Time: 18:00:26
(UTC+00:00)

Transit 2A - Pass Details

Date: 07 October 2022
Orbit: 598 x 959 km, 66.7° (Epoch: 06 December)

Event Time Altitude Azimuth Distance (km) Brightness Sun altitude
Rises 13:46:53 0° 313° (NW) 3,070 8.6 25.9°
Reaches altitude 10° 13:49:46 10° 295° (WNW) 2,214 7.9 26.4°
Maximum altitude 13:53:10 18° 252° (WSW) 1,785 7.7 27.1°
Drops below altitude 10° 13:56:46 10° 210° (SSW) 2,369 8.6 27.7°
Sets 14:00:01 0° 192° (SSW) 3,370 9.6 28.3°
